OneWeb SL0320

operational
NORAD ID: 49190 Int'l Des: 2021-083 Owner: ONEWEBN Country: UK Constellation: oneweb
LEOCIRCULARPOLARONEWEB_TYPE

Über OneWeb SL0320

Beschreibung wird geladen...

Live-Position

3D-Globus wird geladen...

Nächste Überflüge

Höhenverlauf

Altitude vs Time

uPlot chart will show altitude changes over time

Zweizeiliger Elementsatz

1 49190U 21083E 25302.48470470 .00000066 00000-0 13424-3 0 9992
2 49190 87.9231 21.2880 0001815 101.0401 259.0935 13.18606240199573
Epoch: 29. Okt. 2025 • Age: 14 hours

Aktueller Status

Höhe 1193.5 km
Geschwindigkeit 7.26 km/s
Subsatellitenpunkt -4.40°S, 143.03°E
Startdatum 14. Sept. 2021
Alter 4.1 years
Typ internet

Technische Details

Klassifizierung Payload
Masse 148.00 kg
Trockenmasse 140.00 kg
Gesamtmasse 148.00 kg
Länge 1.30 m
Durchmesser 1.00 m
Spannweite 5.00 m
Form Trapezoid+2 pan
Hersteller ONEWUS
Bus-Typ ARROW
Phasenstatus In Orbit
Besitzer/Staat ONEWEBN/UK

Große Konstellationen

Loading constellations...